Home   Weather   Ely   Past weeks

Flag for United Kingdom Past Weather in Ely, England, United Kingdom — Yesterday and Last 2 Weeks

47 °F


Feels Like: 44 °F
Forecast: 52 / 63 °F
Wind: 6 mph from Southwest

Location: Mildenhall Royal Air Force Base

Current Time: Oct 27, 2016 at 2:20:41 AM

Latest Report: Oct 27, 2016 at 1:58 AM

Visibility: N/A

Pressure: 30.42 "Hg

Humidity: 100%

Dew Point: 47 °F

Location of ElyLocation

Past Weather in Ely — Graph


Ely Temperature Yesterday

Maximum temperature yesterday: 60 °F (at 2:58 PM)
Minimum temperature yesterday: 45 °F (at 6:03 AM)
Average temperature yesterday: 51 °F

High & Low Weather Summary for the Past Weeks

High66 °F (Oct 17, 2:58 PM)100% (Oct 12, 12:58 AM)30.41 "Hg (Oct 12, 12:58 AM)
Low36 °F (Oct 25, 7:58 AM)49% (Oct 17, 2:58 PM)29.64 "Hg (Oct 15, 3:58 AM)
Average50 °F94%30.02 "Hg
* Reported Oct 12 12:58 AM — Oct 27 12:58 AM, Ely, Weather by CustomWeather, © 2016

Note: Actual official high and low records may vary slightly from our data, if they occured in-between our weather recording intervals... More about our weather records


Ely Weather History for the Previous 24 Hours

Scroll right to see more
Time TempWeatherWind HumidityBarometerVisibility
12:58 AM
Thu, Oct 27
48 °FPassing clouds.8 mph100%30.41 "HgN/A
11:58 PM
Wed, Oct 26
48 °FClear.8 mph100%30.40 "HgN/A
10:58 PM49 °FClear.9 mph100%30.39 "HgN/A
9:58 PM50 °FClear.8 mph100%30.39 "HgN/A
8:58 PM51 °FClear.9 mph100%30.38 "HgN/A
7:58 PM50 °FClear.9 mph100%30.37 "HgN/A
7:03 PM52 °FPassing clouds.7 mph100%30.35 "HgN/A
6:58 PM51 °FPassing clouds.7 mph100%30.36 "HgN/A
5:58 PM53 °FClear.3 mph100%30.35 "HgN/A
4:58 PM57 °FMostly cloudy.10 mph91%30.33 "HgN/A
3:58 PM57 °FPartly sunny.10 mph88%30.32 "HgN/A
2:58 PM60 °FPassing clouds.13 mph79%30.31 "HgN/A
1:58 PM58 °FPartly sunny.10 mph91%30.32 "HgN/A
1:03 PM57 °FPartly sunny.12 mph100%30.33 "HgN/A
12:58 PM57 °FBroken clouds.10 mph100%30.34 "HgN/A
11:58 AM54 °FOvercast.10 mph100%30.34 "HgN/A
10:58 AM52 °FLow clouds.9 mph100%30.34 "HgN/A
10:03 AM50 °FFog.9 mph100%30.32 "Hg3 mi
9:58 AM51 °FFog.10 mph100%30.33 "Hg2 mi
8:59 AM50 °FLight rain. Fog.10 mph100%30.31 "Hg1 mi
7:58 AM46 °FFog.5 mph100%30.32 "Hg0 mi
7:03 AM45 °FFog.No wind100%30.29 "Hg0 mi
6:03 AM45 °FLight rain. Fog.3 mph100%30.28 "Hg0 mi
5:58 AM45 °FLight rain. Fog.3 mph100%30.29 "Hg0 mi
5:02 AM46 °FFog.No wind100%30.28 "Hg1 mi
4:02 AM46 °FFog.5 mph100%30.27 "Hg3 mi
3:58 AM46 °FFog.No wind100%30.29 "Hg4 mi
2:59 AM48 °FFog.No wind100%30.28 "Hg5 mi
Weather by CustomWeather, © 2016

See weather overviewHow to use our weather pages